Location: Ariel
(45.9570°N, 122.5700°W)
Time: 09:26:49
(UTC-07:00)

Altair - Pass Details

Date: 23 July 2019
Orbit: 1501 x 1683 km, 47.2° (Epoch: 20 August)

Event Time Altitude Azimuth Distance (km) Brightness Sun altitude
Rises 12:29:20 0° 230° (SW) 4,656 10.1 62.3°
Reaches altitude 10° 12:32:25 10° 228° (SW) 3,662 9.8 62.5°
Maximum altitude 12:41:24 63° 150° (SSE) 1,654 10.9 63.0°
Drops below altitude 10° 12:50:25 10° 72° (ENE) 3,672 9.6 63.5°
Sets 12:53:30 0° 70° (ENE) 4,669 10.0 63.6°
